This is the latest recevied weather packets stored in our database for station/object ON6OO-13. If no packets are shown the sender has not sent any weather packets the latest 10 day(s).
| Time | Temp. | Humidity | Pressure | Rain* | Wind** | Luminosity | Snow |
|---|---|---|---|---|---|---|---|
| 1777753862 | 18.33° C | 78% | 1006.4 hPa | 0 mm | - | - | - |
| 1777752950 | 20° C | 76% | 1006.4 hPa | 0 mm | - | - | - |
| 1777752038 | 20° C | 71% | 1005.4 hPa | 0 mm | - | - | - |
| 1777751126 | 20° C | 69% | 1005 hPa | 0 mm | - | - | - |
| 1777750214 | 20° C | 72% | 1005.4 hPa | 0 mm | - | - | - |
| 1777749302 | 21.11° C | 70% | 1005 hPa | 0 mm | - | - | - |
| 1777748390 | 21.67° C | 66% | 1004.7 hPa | 0 mm | - | - | - |
| 1777747478 | 22.22° C | 63% | 1005.4 hPa | 0 mm | - | - | - |
| 1777746566 | 23.33° C | 60% | 1005 hPa | 0 mm | - | - | - |
| 1777745655 | 23.89° C | 54% | 1005 hPa | 0 mm | - | - | - |
| 1777744742 | 24.44° C | 51% | 1005.4 hPa | 0 mm | - | - | - |
| 1777743830 | 25° C | 53% | 1005 hPa | 0 mm | - | - | - |
| 1777742918 | 25° C | 49% | 1005 hPa | 0 mm | - | - | - |
| 1777742006 | 24.44° C | 50% | 1005.4 hPa | 0 mm | - | - | - |
| 1777741094 | 24.44° C | 51% | 1005.4 hPa | 0 mm | - | - | - |
| 1777740182 | 23.89° C | 50% | 1006 hPa | 0 mm | - | - | - |
| 1777739270 | 23.89° C | 52% | 1006 hPa | 0 mm | - | - | - |
| 1777738358 | 24.44° C | 52% | 1006.4 hPa | 0 mm | - | - | - |
| 1777737446 | 25° C | 51% | 1006.4 hPa | 0 mm | - | - | - |
| 1777736534 | 25° C | 52% | 1006.4 hPa | 0 mm | - | - | - |
| 1777735622 | 24.44° C | 52% | 1006.7 hPa | 0 mm | - | - | - |
| 1777734710 | 24.44° C | 52% | 1007.1 hPa | 0 mm | - | - | - |
| 1777733798 | 23.89° C | 53% | 1007.4 hPa | 0 mm | - | - | - |
| 1777732886 | 23.89° C | 56% | 1007.4 hPa | 0 mm | - | - | - |
| 1777731974 | 23.89° C | 56% | 1007.7 hPa | 0 mm | - | - | - |
* Rain latest hour (hover to see other rain measurements)
** Current wind speed in m/s (hover to see current wind gust speed)